Year,Month,Day,Hour,Minute,Value (Times are PST for windspeed in km/hr)
2010,11,08,00,00,11.40
2010,11,08,00,01,20.90
2010,11,08,00,02,20.90
2010,11,08,00,03,11.80
2010,11,08,00,04,10.80
2010,11,08,00,05,10.30
2010,11,08,00,06,9.90
2010,11,08,00,07,6.40
2010,11,08,00,08,6.20
2010,11,08,00,09,9.80
2010,11,08,00,10,8.90
2010,11,08,00,11,12.30
2010,11,08,00,12,11.90
2010,11,08,00,13,13.00
2010,11,08,00,14,12.10
2010,11,08,00,15,8.10
2010,11,08,00,16,9.70
2010,11,08,00,17,7.50
2010,11,08,00,18,10.10
2010,11,08,00,19,7.00
2010,11,08,00,20,10.50
2010,11,08,00,21,10.30
2010,11,08,00,22,8.00
2010,11,08,00,23,8.30
2010,11,08,00,24,8.90
2010,11,08,00,25,4.40
2010,11,08,00,26,6.40
2010,11,08,00,27,8.50
2010,11,08,00,28,6.40
2010,11,08,00,29,5.60
2010,11,08,00,30,5.30
2010,11,08,00,31,6.00
2010,11,08,00,32,6.60
2010,11,08,00,33,6.00
2010,11,08,00,34,4.90
2010,11,08,00,35,6.80
2010,11,08,00,36,5.20
2010,11,08,00,37,6.80
2010,11,08,00,38,6.80
2010,11,08,00,39,7.20
2010,11,08,00,40,6.10
2010,11,08,00,41,5.30
2010,11,08,00,42,4.60
2010,11,08,00,43,4.70
2010,11,08,00,44,7.10
2010,11,08,00,45,6.60
2010,11,08,00,46,6.90
2010,11,08,00,47,5.50
2010,11,08,00,48,5.20
2010,11,08,00,49,5.60
2010,11,08,00,50,5.40
2010,11,08,00,51,3.90
2010,11,08,00,52,5.10
2010,11,08,00,53,5.30
2010,11,08,00,54,2.00
2010,11,08,00,55,4.80
2010,11,08,00,56,4.90
2010,11,08,00,57,3.30
2010,11,08,00,58,3.00
2010,11,08,00,59,1.40
2010,11,08,01,00,2.00
2010,11,08,01,01,2.60
2010,11,08,01,02,1.80
2010,11,08,01,03,2.70
2010,11,08,01,04,5.40
2010,11,08,01,05,3.60
2010,11,08,01,06,3.10
2010,11,08,01,07,5.00
2010,11,08,01,08,1.60
2010,11,08,01,09,4.60
2010,11,08,01,10,2.70
2010,11,08,01,11,2.50
2010,11,08,01,12,2.10
2010,11,08,01,13,0.60
2010,11,08,01,14,4.90
2010,11,08,01,15,1.20
2010,11,08,01,16,5.10
2010,11,08,01,17,5.60
2010,11,08,01,18,7.00
2010,11,08,01,19,3.80
2010,11,08,01,20,1.40
2010,11,08,01,21,10.70
2010,11,08,01,22,7.70
2010,11,08,01,23,5.50
2010,11,08,01,24,8.50
2010,11,08,01,25,10.40
2010,11,08,01,26,11.40
2010,11,08,01,27,9.80
2010,11,08,01,28,9.60
2010,11,08,01,29,6.90
2010,11,08,01,30,8.60
2010,11,08,01,31,7.60
2010,11,08,01,32,5.80
2010,11,08,01,33,7.70
2010,11,08,01,34,6.60
2010,11,08,01,35,6.40
2010,11,08,01,36,5.30
2010,11,08,01,37,6.40
2010,11,08,01,38,6.50
2010,11,08,01,39,5.30
2010,11,08,01,40,5.00
2010,11,08,01,41,3.80
2010,11,08,01,42,1.30
2010,11,08,01,43,4.30
2010,11,08,01,44,5.50
2010,11,08,01,45,5.50
2010,11,08,01,46,2.70
2010,11,08,01,47,5.80
2010,11,08,01,48,2.90
2010,11,08,01,49,4.10
2010,11,08,01,50,6.00
2010,11,08,01,51,2.60
2010,11,08,01,52,4.50
2010,11,08,01,53,3.80
2010,11,08,01,54,5.50
2010,11,08,01,55,5.90
2010,11,08,01,56,6.70
2010,11,08,01,57,5.90
2010,11,08,01,58,4.70
2010,11,08,01,59,7.40
2010,11,08,02,00,6.90
2010,11,08,02,01,6.40
2010,11,08,02,02,5.80
2010,11,08,02,03,6.60
2010,11,08,02,04,7.30
2010,11,08,02,05,7.00
2010,11,08,02,06,6.90
2010,11,08,02,07,8.50
2010,11,08,02,08,8.90
2010,11,08,02,09,10.40
2010,11,08,02,10,8.20
2010,11,08,02,11,7.00
2010,11,08,02,12,9.70
2010,11,08,02,13,8.10
2010,11,08,02,14,8.00
2010,11,08,02,15,7.00
2010,11,08,02,16,8.60
2010,11,08,02,17,7.00
2010,11,08,02,18,7.40
2010,11,08,02,19,8.00
2010,11,08,02,20,7.10
2010,11,08,02,21,9.30
2010,11,08,02,22,10.50
2010,11,08,02,23,8.10
2010,11,08,02,24,10.80
2010,11,08,02,25,9.80
2010,11,08,02,26,11.70
2010,11,08,02,27,8.90
2010,11,08,02,28,12.70
2010,11,08,02,29,9.90
2010,11,08,02,30,9.70
2010,11,08,02,31,5.80
2010,11,08,02,32,8.00
2010,11,08,02,33,11.40
2010,11,08,02,34,7.20
2010,11,08,02,35,7.70
2010,11,08,02,36,9.80
2010,11,08,02,37,7.60
2010,11,08,02,38,14.10
2010,11,08,02,39,8.10
2010,11,08,02,40,10.10
2010,11,08,02,41,9.10
2010,11,08,02,42,5.30
2010,11,08,02,43,6.00
2010,11,08,02,44,8.60
2010,11,08,02,45,7.20
2010,11,08,02,46,11.20
2010,11,08,02,47,8.60
2010,11,08,02,48,10.60
2010,11,08,02,49,9.30
2010,11,08,02,50,8.60
2010,11,08,02,51,3.90
2010,11,08,02,52,7.50
2010,11,08,02,53,7.00
2010,11,08,02,54,6.30
2010,11,08,02,55,5.50
2010,11,08,02,56,4.90
2010,11,08,02,57,4.00
2010,11,08,02,58,2.00
2010,11,08,02,59,5.00
2010,11,08,03,00,2.50
2010,11,08,03,01,2.00
2010,11,08,03,02,4.40
2010,11,08,03,03,4.50
2010,11,08,03,04,1.40
2010,11,08,03,05,1.00
2010,11,08,03,06,2.80
2010,11,08,03,07,2.80
2010,11,08,03,08,1.20
2010,11,08,03,09,3.10
2010,11,08,03,10,2.10
2010,11,08,03,11,1.00
2010,11,08,03,12,1.20
2010,11,08,03,13,4.90
2010,11,08,03,14,4.80
2010,11,08,03,15,3.00
2010,11,08,03,16,3.00
2010,11,08,03,17,2.80
2010,11,08,03,18,2.70
2010,11,08,03,19,1.50
2010,11,08,03,20,0.00
2010,11,08,03,21,0.10
2010,11,08,03,22,0.00
2010,11,08,03,23,0.00
2010,11,08,03,24,0.00
2010,11,08,03,25,0.00
2010,11,08,03,26,0.50
2010,11,08,03,27,2.70
2010,11,08,03,28,2.90
2010,11,08,03,29,4.10
2010,11,08,03,30,5.20
2010,11,08,03,31,4.70
2010,11,08,03,32,4.80
2010,11,08,03,33,3.10
2010,11,08,03,34,3.50
2010,11,08,03,35,3.00
2010,11,08,03,36,1.80
2010,11,08,03,37,2.70
2010,11,08,03,38,3.50
2010,11,08,03,39,3.60
2010,11,08,03,40,3.60
2010,11,08,03,41,2.80
2010,11,08,03,42,5.80
2010,11,08,03,43,2.80
2010,11,08,03,44,3.10
2010,11,08,03,45,1.90
2010,11,08,03,46,2.20
2010,11,08,03,47,0.10
2010,11,08,03,48,0.60
2010,11,08,03,49,1.40
2010,11,08,03,50,3.00
2010,11,08,03,51,1.40
2010,11,08,03,52,0.00
2010,11,08,03,53,0.00
2010,11,08,03,54,0.40
2010,11,08,03,55,0.80
2010,11,08,03,56,0.30
2010,11,08,03,57,0.20
2010,11,08,03,58,0.10
2010,11,08,03,59,1.20
2010,11,08,04,00,1.00
2010,11,08,04,01,0.00
2010,11,08,04,02,0.00
2010,11,08,04,03,0.00
2010,11,08,04,04,0.00
2010,11,08,04,05,0.10
2010,11,08,04,06,0.20
2010,11,08,04,07,2.50
2010,11,08,04,08,0.00
2010,11,08,04,09,0.10
2010,11,08,04,10,0.60
2010,11,08,04,11,0.00
2010,11,08,04,12,0.30
2010,11,08,04,13,1.30
2010,11,08,04,14,0.40
2010,11,08,04,15,0.30
2010,11,08,04,16,0.00
2010,11,08,04,17,0.10
2010,11,08,04,18,0.00
2010,11,08,04,19,2.00
2010,11,08,04,20,0.70
2010,11,08,04,21,0.00
2010,11,08,04,22,0.70
2010,11,08,04,23,0.30
2010,11,08,04,24,2.70
2010,11,08,04,25,3.40
2010,11,08,04,26,3.90
2010,11,08,04,27,3.10
2010,11,08,04,28,3.80
2010,11,08,04,29,3.90
2010,11,08,04,30,4.70
2010,11,08,04,31,5.80
2010,11,08,04,32,6.40
2010,11,08,04,33,6.50
2010,11,08,04,34,5.80
2010,11,08,04,35,6.30
2010,11,08,04,36,4.30
2010,11,08,04,37,4.00
2010,11,08,04,38,10.10
2010,11,08,04,39,9.50
2010,11,08,04,40,6.10
2010,11,08,04,41,4.50
2010,11,08,04,42,3.30
2010,11,08,04,43,2.80
2010,11,08,04,44,2.20
2010,11,08,04,45,3.80
2010,11,08,04,46,2.60
2010,11,08,04,47,0.50
2010,11,08,04,48,3.90
2010,11,08,04,49,0.80
2010,11,08,04,50,1.90
2010,11,08,04,51,0.80
2010,11,08,04,52,5.10
2010,11,08,04,53,2.90
2010,11,08,04,54,0.20
2010,11,08,04,55,0.60
2010,11,08,04,56,0.50
2010,11,08,04,57,0.20
2010,11,08,04,58,1.30
2010,11,08,04,59,0.10
2010,11,08,05,00,0.10
2010,11,08,05,01,1.10
2010,11,08,05,02,1.00
2010,11,08,05,03,0.40
2010,11,08,05,04,0.00
2010,11,08,05,05,0.00
2010,11,08,05,06,0.50
2010,11,08,05,07,2.10
2010,11,08,05,08,2.40
2010,11,08,05,09,1.70
2010,11,08,05,10,1.90
2010,11,08,05,11,4.60
2010,11,08,05,12,4.10
2010,11,08,05,13,5.00
2010,11,08,05,14,6.80
2010,11,08,05,15,6.90
2010,11,08,05,16,6.70
2010,11,08,05,17,7.00
2010,11,08,05,18,5.60
2010,11,08,05,19,7.60
2010,11,08,05,20,7.40
2010,11,08,05,21,7.40
2010,11,08,05,22,8.10
2010,11,08,05,23,9.10
2010,11,08,05,24,7.00
2010,11,08,05,25,7.50
2010,11,08,05,26,7.20
2010,11,08,05,27,7.10
2010,11,08,05,28,4.40
2010,11,08,05,29,4.30
2010,11,08,05,30,5.20
2010,11,08,05,31,4.70
2010,11,08,05,32,6.40
2010,11,08,05,33,6.70
2010,11,08,05,34,5.70
2010,11,08,05,35,3.90
2010,11,08,05,36,5.10
2010,11,08,05,37,5.30
2010,11,08,05,38,6.80
2010,11,08,05,39,4.30
2010,11,08,05,40,5.10
2010,11,08,05,41,5.90
2010,11,08,05,42,4.00
2010,11,08,05,43,4.10
2010,11,08,05,44,4.10
2010,11,08,05,45,4.50
2010,11,08,05,46,6.40
2010,11,08,05,47,4.10
2010,11,08,05,48,6.00
2010,11,08,05,49,8.10
2010,11,08,05,50,6.00
2010,11,08,05,51,7.90
2010,11,08,05,52,6.40
2010,11,08,05,53,7.40
2010,11,08,05,54,8.10
2010,11,08,05,55,8.50
2010,11,08,05,56,6.90
2010,11,08,05,57,6.40
2010,11,08,05,58,6.50
2010,11,08,05,59,7.10
2010,11,08,06,00,7.00
2010,11,08,06,01,7.70
2010,11,08,06,02,7.20
2010,11,08,06,03,8.00
2010,11,08,06,04,6.40
2010,11,08,06,05,6.40
2010,11,08,06,06,6.10
2010,11,08,06,07,5.20
2010,11,08,06,08,6.90
2010,11,08,06,09,4.50
2010,11,08,06,10,5.40
2010,11,08,06,11,3.70
2010,11,08,06,12,5.90
2010,11,08,06,13,6.10
2010,11,08,06,14,6.20
2010,11,08,06,15,4.90
2010,11,08,06,16,2.50
2010,11,08,06,17,1.90
2010,11,08,06,18,1.70
2010,11,08,06,19,4.10
2010,11,08,06,20,0.70
2010,11,08,06,21,2.20
2010,11,08,06,22,2.70
2010,11,08,06,23,1.60
2010,11,08,06,24,2.10
2010,11,08,06,25,4.80
2010,11,08,06,26,2.30
2010,11,08,06,27,1.30
2010,11,08,06,28,1.80
2010,11,08,06,29,0.80
2010,11,08,06,30,2.10
2010,11,08,06,31,0.10
2010,11,08,06,32,0.10
2010,11,08,06,33,1.40
2010,11,08,06,34,3.50
2010,11,08,06,35,3.70
2010,11,08,06,36,4.10
2010,11,08,06,37,3.90
2010,11,08,06,38,3.00
2010,11,08,06,39,3.50
2010,11,08,06,40,0.00
2010,11,08,06,41,0.00
2010,11,08,06,42,0.10
2010,11,08,06,43,0.00
2010,11,08,06,44,0.20
2010,11,08,06,45,0.00
2010,11,08,06,46,0.10
2010,11,08,06,47,0.00
2010,11,08,06,48,0.00
2010,11,08,06,49,0.00
2010,11,08,06,50,0.00
2010,11,08,06,51,0.00
2010,11,08,06,52,0.00
2010,11,08,06,53,0.00
2010,11,08,06,54,0.00
2010,11,08,06,55,0.00
2010,11,08,06,56,0.00
2010,11,08,06,57,0.00
2010,11,08,06,58,0.00
2010,11,08,06,59,0.00
2010,11,08,07,00,0.00
2010,11,08,07,01,0.00
2010,11,08,07,02,0.00
2010,11,08,07,03,0.00
2010,11,08,07,04,0.00
2010,11,08,07,05,0.00
2010,11,08,07,06,0.00
2010,11,08,07,07,0.00
2010,11,08,07,08,0.00
2010,11,08,07,09,0.00
2010,11,08,07,10,0.00
2010,11,08,07,11,0.00
2010,11,08,07,12,0.00
2010,11,08,07,13,0.00
2010,11,08,07,14,0.00
2010,11,08,07,15,0.00
2010,11,08,07,16,0.00
2010,11,08,07,17,0.00
2010,11,08,07,18,0.00
2010,11,08,07,19,0.00
2010,11,08,07,20,0.00
2010,11,08,07,21,0.00
2010,11,08,07,22,0.00
2010,11,08,07,23,0.00
2010,11,08,07,24,0.00
2010,11,08,07,25,0.00
2010,11,08,07,26,0.00
2010,11,08,07,27,0.00
2010,11,08,07,28,0.00
2010,11,08,07,29,2.10
2010,11,08,07,30,0.60
2010,11,08,07,31,0.00
2010,11,08,07,32,1.80
2010,11,08,07,33,0.10
2010,11,08,07,34,0.10
2010,11,08,07,35,2.40
2010,11,08,07,36,3.30
2010,11,08,07,37,3.50
2010,11,08,07,38,5.80
2010,11,08,07,39,2.20
2010,11,08,07,40,2.50
2010,11,08,07,41,0.30
2010,11,08,07,42,1.60
2010,11,08,07,43,3.80
2010,11,08,07,44,5.40
2010,11,08,07,45,3.50
2010,11,08,07,46,5.30
2010,11,08,07,47,4.00
2010,11,08,07,48,2.20
2010,11,08,07,49,6.90
2010,11,08,07,50,2.50
2010,11,08,07,51,4.20
2010,11,08,07,52,0.50
2010,11,08,07,53,5.90
2010,11,08,07,54,4.20
2010,11,08,07,55,2.90
2010,11,08,07,56,0.00
2010,11,08,07,57,0.80
2010,11,08,07,58,4.90
2010,11,08,07,59,2.90
2010,11,08,08,00,4.10
2010,11,08,08,01,5.70
2010,11,08,08,02,4.80
2010,11,08,08,03,5.30
2010,11,08,08,04,6.60
2010,11,08,08,05,0.60
2010,11,08,08,06,2.00
2010,11,08,08,07,3.80
2010,11,08,08,08,3.10
2010,11,08,08,09,5.20
2010,11,08,08,10,1.80
2010,11,08,08,11,1.10
2010,11,08,08,12,0.20
2010,11,08,08,13,0.40
2010,11,08,08,14,2.70
2010,11,08,08,15,1.10
2010,11,08,08,16,0.20
2010,11,08,08,17,1.40
2010,11,08,08,18,0.90
2010,11,08,08,19,0.20
2010,11,08,08,20,0.10
2010,11,08,08,21,0.10
2010,11,08,08,22,0.00
2010,11,08,08,23,1.00
2010,11,08,08,24,0.20
2010,11,08,08,25,3.00
2010,11,08,08,26,1.20
2010,11,08,08,27,2.10
2010,11,08,08,28,1.10
2010,11,08,08,29,0.60
2010,11,08,08,30,5.90
2010,11,08,08,31,4.30
2010,11,08,08,32,3.60
2010,11,08,08,33,2.40
2010,11,08,08,34,2.00
2010,11,08,08,35,5.80
2010,11,08,08,36,8.50
2010,11,08,08,37,7.40
2010,11,08,08,38,7.20
2010,11,08,08,39,9.10
2010,11,08,08,40,12.50
2010,11,08,08,41,9.20
2010,11,08,08,42,11.60
2010,11,08,08,43,8.40
2010,11,08,08,44,10.00
2010,11,08,08,45,6.50
2010,11,08,08,46,3.40
2010,11,08,08,47,4.90
2010,11,08,08,48,4.70
2010,11,08,08,49,5.30
2010,11,08,08,50,4.90
2010,11,08,08,51,7.90
2010,11,08,08,52,4.50
2010,11,08,08,53,6.40
2010,11,08,08,54,4.70
2010,11,08,08,55,6.50
2010,11,08,08,56,6.00
2010,11,08,08,57,7.10
2010,11,08,08,58,7.80
2010,11,08,08,59,5.50
2010,11,08,09,00,5.20
2010,11,08,09,01,4.90
2010,11,08,09,02,7.50
2010,11,08,09,03,6.50
2010,11,08,09,04,5.80
2010,11,08,09,05,7.60
2010,11,08,09,06,5.80
2010,11,08,09,07,6.90
2010,11,08,09,08,4.80
2010,11,08,09,09,3.30
2010,11,08,09,10,0.80
2010,11,08,09,11,5.30
2010,11,08,09,12,6.40
2010,11,08,09,13,7.80
2010,11,08,09,14,5.70
2010,11,08,09,15,6.20
2010,11,08,09,16,5.90
2010,11,08,09,17,4.90
2010,11,08,09,18,1.80
2010,11,08,09,19,3.60
2010,11,08,09,20,2.50
2010,11,08,09,21,0.90
2010,11,08,09,22,4.60
2010,11,08,09,23,1.00
2010,11,08,09,24,5.40
2010,11,08,09,25,5.40
2010,11,08,09,26,3.10
2010,11,08,09,27,3.10
2010,11,08,09,28,2.30
2010,11,08,09,29,7.00
2010,11,08,09,30,6.50
2010,11,08,09,31,6.50
2010,11,08,09,32,7.00
2010,11,08,09,33,6.40
2010,11,08,09,34,2.30
2010,11,08,09,35,3.50
2010,11,08,09,36,0.20
2010,11,08,09,37,3.80
2010,11,08,09,38,0.20
2010,11,08,09,39,4.20
2010,11,08,09,40,1.90
2010,11,08,09,41,1.60
2010,11,08,09,42,2.30
2010,11,08,09,43,4.20
2010,11,08,09,44,2.90
2010,11,08,09,45,6.30
2010,11,08,09,46,5.60
2010,11,08,09,47,7.10
2010,11,08,09,48,9.10
2010,11,08,09,49,5.30
2010,11,08,09,50,5.70
2010,11,08,09,51,4.70
2010,11,08,09,52,6.20
2010,11,08,09,53,7.80
2010,11,08,09,54,6.10
2010,11,08,09,55,6.60
2010,11,08,09,56,6.00
2010,11,08,09,57,8.70
2010,11,08,09,58,7.50
2010,11,08,09,59,6.70
2010,11,08,10,00,4.40
2010,11,08,10,01,0.20
2010,11,08,10,02,4.90
2010,11,08,10,03,5.40
2010,11,08,10,04,5.80
2010,11,08,10,05,8.50
2010,11,08,10,06,5.60
2010,11,08,10,07,5.00
2010,11,08,10,08,5.60
2010,11,08,10,09,1.00
2010,11,08,10,10,5.50
2010,11,08,10,11,3.40
2010,11,08,10,12,2.70
2010,11,08,10,13,6.00
2010,11,08,10,14,2.30
2010,11,08,10,15,4.90
2010,11,08,10,16,3.50
2010,11,08,10,17,8.90
2010,11,08,10,18,8.00
2010,11,08,10,19,5.10
2010,11,08,10,20,7.10
2010,11,08,10,21,2.70
2010,11,08,10,22,5.00
2010,11,08,10,23,6.40
2010,11,08,10,24,7.60
2010,11,08,10,25,15.30
2010,11,08,10,26,8.50
2010,11,08,10,27,12.20
2010,11,08,10,28,13.50
2010,11,08,10,29,10.10
2010,11,08,10,30,6.80
2010,11,08,10,31,8.40
2010,11,08,10,32,6.20
2010,11,08,10,33,13.60
2010,11,08,10,34,19.70
2010,11,08,10,35,18.40
2010,11,08,10,36,14.60
2010,11,08,10,37,8.00
2010,11,08,10,38,11.30
2010,11,08,10,39,10.60
2010,11,08,10,40,10.40
2010,11,08,10,41,11.50
2010,11,08,10,42,10.50
2010,11,08,10,43,8.80
2010,11,08,10,44,14.20
2010,11,08,10,45,8.10
2010,11,08,10,46,11.30
2010,11,08,10,47,12.30
2010,11,08,10,48,14.80
2010,11,08,10,49,16.70
2010,11,08,10,50,15.00
2010,11,08,10,51,11.40
2010,11,08,10,52,11.80
2010,11,08,10,53,14.80
2010,11,08,10,54,19.00
2010,11,08,10,55,16.80
2010,11,08,10,56,17.20
2010,11,08,10,57,17.90
2010,11,08,10,58,18.70
2010,11,08,10,59,13.40
2010,11,08,11,00,14.40
2010,11,08,11,01,16.10
2010,11,08,11,02,9.70
2010,11,08,11,03,8.20
2010,11,08,11,04,13.80
2010,11,08,11,05,10.80
2010,11,08,11,06,8.20
2010,11,08,11,07,10.40
2010,11,08,11,08,10.80
2010,11,08,11,09,7.40
2010,11,08,11,10,5.30
2010,11,08,11,11,15.30
2010,11,08,11,12,12.60
2010,11,08,11,13,7.80
2010,11,08,11,14,17.20
2010,11,08,11,15,16.70
2010,11,08,11,16,15.90
2010,11,08,11,17,16.60
2010,11,08,11,18,10.60
2010,11,08,11,19,8.00
2010,11,08,11,20,11.60
2010,11,08,11,21,13.10
2010,11,08,11,22,8.70
2010,11,08,11,23,7.50
2010,11,08,11,24,10.20
2010,11,08,11,25,12.10
2010,11,08,11,26,16.40
2010,11,08,11,27,17.80
2010,11,08,11,28,17.50
2010,11,08,11,29,16.30
2010,11,08,11,30,14.00
2010,11,08,11,31,10.10
2010,11,08,11,32,10.20
2010,11,08,11,33,12.30
2010,11,08,11,34,8.10
2010,11,08,11,35,12.00
2010,11,08,11,36,14.70
2010,11,08,11,37,16.00
2010,11,08,11,38,16.90
2010,11,08,11,39,19.30
2010,11,08,11,40,18.00
2010,11,08,11,41,20.60
2010,11,08,11,42,15.20
2010,11,08,11,43,13.50
2010,11,08,11,44,18.20
2010,11,08,11,45,18.20
2010,11,08,11,46,19.50
2010,11,08,11,47,21.10
2010,11,08,11,48,15.90
2010,11,08,11,49,10.80
2010,11,08,11,50,9.00
2010,11,08,11,51,14.30
2010,11,08,11,52,14.20
2010,11,08,11,53,14.80
2010,11,08,11,54,16.90
2010,11,08,11,55,17.70
2010,11,08,11,56,18.80
2010,11,08,11,57,11.20
2010,11,08,11,58,17.50
2010,11,08,11,59,13.80
2010,11,08,12,00,13.60
2010,11,08,12,01,16.20
2010,11,08,12,02,10.70
2010,11,08,12,03,17.20
2010,11,08,12,04,16.50
2010,11,08,12,05,19.10
2010,11,08,12,06,12.00
2010,11,08,12,07,13.50
2010,11,08,12,08,11.10
2010,11,08,12,09,14.10
2010,11,08,12,10,15.80
2010,11,08,12,11,14.70
2010,11,08,12,12,10.30
2010,11,08,12,13,15.90
2010,11,08,12,14,13.80
2010,11,08,12,15,16.20
2010,11,08,12,16,17.20
2010,11,08,12,17,19.70
2010,11,08,12,18,17.30
2010,11,08,12,19,13.60
2010,11,08,12,20,11.90
2010,11,08,12,21,16.00
2010,11,08,12,22,15.00
2010,11,08,12,23,19.10
2010,11,08,12,24,13.10
2010,11,08,12,25,12.60
2010,11,08,12,26,17.30
2010,11,08,12,27,18.40
2010,11,08,12,28,17.60
2010,11,08,12,29,16.90
2010,11,08,12,30,13.20
2010,11,08,12,31,12.30
2010,11,08,12,32,14.20
2010,11,08,12,33,9.10
2010,11,08,12,34,11.80
2010,11,08,12,35,11.90
2010,11,08,12,36,12.50
2010,11,08,12,37,12.20
2010,11,08,12,38,16.60
2010,11,08,12,39,17.00
2010,11,08,12,40,17.60
2010,11,08,12,41,16.60
2010,11,08,12,42,21.60
2010,11,08,12,43,16.40
2010,11,08,12,44,16.90
2010,11,08,12,45,14.60
2010,11,08,12,46,13.40
2010,11,08,12,47,10.50
2010,11,08,12,48,12.10
2010,11,08,12,49,18.20
2010,11,08,12,50,11.10
2010,11,08,12,51,13.90
2010,11,08,12,52,11.90
2010,11,08,12,53,16.80
2010,11,08,12,54,19.20
2010,11,08,12,55,18.80
2010,11,08,12,56,16.60
2010,11,08,12,57,17.00
2010,11,08,12,58,14.60
2010,11,08,12,59,13.90
2010,11,08,13,00,16.40
2010,11,08,13,01,15.40
2010,11,08,13,02,18.00
2010,11,08,13,03,18.00
2010,11,08,13,04,16.60
2010,11,08,13,05,8.10
2010,11,08,13,06,8.20
2010,11,08,13,07,9.10
2010,11,08,13,08,5.60
2010,11,08,13,09,11.00
2010,11,08,13,10,14.70
2010,11,08,13,11,10.70
2010,11,08,13,12,20.10
2010,11,08,13,13,16.10
2010,11,08,13,14,18.40
2010,11,08,13,15,14.90
2010,11,08,13,16,19.30
2010,11,08,13,17,16.30
2010,11,08,13,18,18.80
2010,11,08,13,19,18.90
2010,11,08,13,20,18.80
2010,11,08,13,21,16.80
2010,11,08,13,22,18.30
2010,11,08,13,23,22.10
2010,11,08,13,24,20.30
2010,11,08,13,25,18.30
2010,11,08,13,26,22.30
2010,11,08,13,27,17.20
2010,11,08,13,28,16.40
2010,11,08,13,29,16.60
2010,11,08,13,30,17.40
2010,11,08,13,31,13.80
2010,11,08,13,32,15.30
2010,11,08,13,33,14.40
2010,11,08,13,34,10.60
2010,11,08,13,35,16.80
2010,11,08,13,36,18.70
2010,11,08,13,37,18.00
2010,11,08,13,38,15.60
2010,11,08,13,39,13.70
2010,11,08,13,40,13.00
2010,11,08,13,41,7.00
2010,11,08,13,42,6.40
2010,11,08,14,36,8.60
2010,11,08,14,37,13.30
2010,11,08,14,38,5.10
2010,11,08,14,39,7.90
2010,11,08,14,40,8.00
2010,11,08,14,41,4.30
2010,11,08,14,42,4.80
2010,11,08,14,43,10.10
2010,11,08,14,44,10.20
2010,11,08,14,45,8.50
2010,11,08,14,46,7.00
2010,11,08,14,47,7.00
2010,11,08,14,48,5.70
2010,11,08,14,49,6.40
2010,11,08,14,50,6.60
2010,11,08,14,51,4.10
2010,11,08,14,52,3.60
2010,11,08,14,53,6.40
2010,11,08,14,54,4.60
2010,11,08,14,55,5.60
2010,11,08,14,56,7.80
2010,11,08,14,57,3.90
2010,11,08,14,58,7.30
2010,11,08,14,59,9.70
2010,11,08,15,00,15.20
2010,11,08,15,01,10.00
2010,11,08,15,02,6.00
2010,11,08,15,03,7.30
2010,11,08,15,04,9.20
2010,11,08,15,05,13.00
2010,11,08,15,06,15.00
2010,11,08,15,07,13.00
2010,11,08,15,08,10.50
2010,11,08,15,09,9.60
2010,11,08,15,10,7.40
2010,11,08,15,11,7.10
2010,11,08,15,12,6.80
2010,11,08,15,13,5.60
2010,11,08,15,14,6.50
2010,11,08,15,15,11.90
2010,11,08,15,16,6.50
2010,11,08,15,17,10.50
2010,11,08,15,18,8.40
2010,11,08,15,19,7.70
2010,11,08,15,20,11.10
2010,11,08,15,21,8.20
2010,11,08,15,22,14.20
2010,11,08,15,23,10.30
2010,11,08,15,24,11.40
2010,11,08,15,25,10.20
2010,11,08,15,26,7.50
2010,11,08,15,27,5.00
2010,11,08,15,28,7.10
2010,11,08,15,29,6.20
2010,11,08,15,30,7.70
2010,11,08,15,31,11.00
2010,11,08,15,32,7.30
2010,11,08,15,33,10.30
2010,11,08,15,34,8.60
2010,11,08,15,35,9.00
2010,11,08,15,36,8.50
2010,11,08,15,37,10.40
2010,11,08,15,38,9.50
2010,11,08,15,39,9.00
2010,11,08,15,40,6.80
2010,11,08,15,41,10.30
2010,11,08,15,42,5.40
2010,11,08,15,43,7.50
2010,11,08,15,44,11.30
2010,11,08,15,45,14.50
2010,11,08,15,46,11.90
2010,11,08,15,47,10.00
2010,11,08,15,48,10.40
2010,11,08,15,49,13.80
2010,11,08,15,50,8.60
2010,11,08,15,51,16.60
2010,11,08,15,52,13.70
2010,11,08,15,53,11.30
2010,11,08,15,54,14.20
2010,11,08,15,55,17.30
2010,11,08,15,56,12.30
2010,11,08,15,57,13.90
2010,11,08,15,58,12.40
2010,11,08,15,59,11.10
2010,11,08,16,00,9.30
2010,11,08,16,01,10.90
2010,11,08,16,02,6.80
2010,11,08,16,03,3.40
2010,11,08,16,04,5.20
2010,11,08,16,05,6.90
2010,11,08,16,06,11.40
2010,11,08,16,07,7.50
2010,11,08,16,08,14.10
2010,11,08,16,09,7.40
2010,11,08,16,10,7.40
2010,11,08,16,11,6.90
2010,11,08,16,12,12.00
2010,11,08,16,13,8.30
2010,11,08,16,14,12.30
2010,11,08,16,15,10.80
2010,11,08,16,16,10.50
2010,11,08,16,17,9.80
2010,11,08,16,18,14.70
2010,11,08,16,19,9.30
2010,11,08,16,20,9.90
2010,11,08,16,21,6.60
2010,11,08,16,22,8.40
2010,11,08,16,23,6.90
2010,11,08,16,24,6.00
2010,11,08,16,25,7.70
2010,11,08,16,26,9.60
2010,11,08,16,27,9.10
2010,11,08,16,28,8.20
2010,11,08,16,29,7.60
2010,11,08,16,30,3.90
2010,11,08,16,31,6.80
2010,11,08,16,32,6.00
2010,11,08,16,33,2.70
2010,11,08,16,34,0.90
2010,11,08,16,35,0.70
2010,11,08,16,36,1.00
2010,11,08,16,37,4.50
2010,11,08,16,38,6.20
2010,11,08,16,39,4.80
2010,11,08,16,40,3.40
2010,11,08,16,41,2.70
2010,11,08,16,42,3.50
2010,11,08,16,43,6.80
2010,11,08,16,44,6.50
2010,11,08,16,45,4.10
2010,11,08,16,46,6.50
2010,11,08,16,47,3.70
2010,11,08,16,48,5.60
2010,11,08,16,49,5.00
2010,11,08,16,50,5.90
2010,11,08,16,51,5.10
2010,11,08,16,52,2.80
2010,11,08,16,53,2.70
2010,11,08,16,54,5.80
2010,11,08,16,55,4.70
2010,11,08,16,56,6.20
2010,11,08,16,57,3.10
2010,11,08,16,58,5.10
2010,11,08,16,59,5.10
2010,11,08,17,00,2.50
2010,11,08,17,01,3.60
2010,11,08,17,02,5.30
2010,11,08,17,03,4.50
2010,11,08,17,04,0.60
2010,11,08,17,05,2.20
2010,11,08,17,06,0.20
2010,11,08,17,07,2.00
2010,11,08,17,08,3.10
2010,11,08,17,09,0.50
2010,11,08,17,10,4.40
2010,11,08,17,11,1.40
2010,11,08,17,12,1.80
2010,11,08,17,13,2.90
2010,11,08,17,14,1.00
2010,11,08,17,15,0.40
2010,11,08,17,16,0.70
2010,11,08,17,17,0.30
2010,11,08,17,18,2.10
2010,11,08,17,19,6.30
2010,11,08,17,20,3.70
2010,11,08,17,21,4.30
2010,11,08,17,22,4.90
2010,11,08,17,23,2.10
2010,11,08,17,24,4.20
2010,11,08,17,25,3.50
2010,11,08,17,26,2.40
2010,11,08,17,27,2.70
2010,11,08,17,28,3.10
2010,11,08,17,29,2.90
2010,11,08,17,30,1.50
2010,11,08,17,31,3.20
2010,11,08,17,32,6.00
2010,11,08,17,33,3.80
2010,11,08,17,34,3.70
2010,11,08,17,35,3.60
2010,11,08,17,36,2.90
2010,11,08,17,37,4.70
2010,11,08,17,38,3.60
2010,11,08,17,39,5.30
2010,11,08,17,40,4.30
2010,11,08,17,41,4.70
2010,11,08,17,42,4.80
2010,11,08,17,43,6.40
2010,11,08,17,44,6.80
2010,11,08,17,45,6.90
2010,11,08,17,46,7.00
2010,11,08,17,47,6.40
2010,11,08,17,48,5.10
2010,11,08,17,49,5.90
2010,11,08,17,50,4.80
2010,11,08,17,51,5.00
2010,11,08,17,52,5.00
2010,11,08,17,53,5.00
2010,11,08,17,54,5.00
2010,11,08,17,55,5.00
2010,11,08,17,56,6.60
2010,11,08,17,57,4.70
2010,11,08,17,58,4.70
2010,11,08,17,59,3.90
2010,11,08,18,00,3.60
2010,11,08,18,01,1.50
2010,11,08,18,02,2.50
2010,11,08,18,03,2.50
2010,11,08,18,04,4.20
2010,11,08,18,05,2.30
2010,11,08,18,06,0.10
2010,11,08,18,07,0.00
2010,11,08,18,08,0.40
2010,11,08,18,09,0.10
2010,11,08,18,10,0.30
2010,11,08,18,11,0.80
2010,11,08,18,12,1.60
2010,11,08,18,13,0.00
2010,11,08,18,14,0.10
2010,11,08,18,15,0.00
2010,11,08,18,16,0.00
2010,11,08,18,17,0.00
2010,11,08,18,18,0.00
2010,11,08,18,19,0.00
2010,11,08,18,20,0.10
2010,11,08,18,21,0.00
2010,11,08,18,22,0.00
2010,11,08,18,23,0.00
2010,11,08,18,24,0.00
2010,11,08,18,25,0.00
2010,11,08,18,26,0.00
2010,11,08,18,27,0.00
2010,11,08,18,28,0.00
2010,11,08,18,29,0.00
2010,11,08,18,30,0.00
2010,11,08,18,31,0.00
2010,11,08,18,32,0.00
2010,11,08,18,33,0.00
2010,11,08,18,34,0.00
2010,11,08,18,35,0.00
2010,11,08,18,36,0.00
2010,11,08,18,37,0.00
2010,11,08,18,38,0.00
2010,11,08,18,39,0.10
2010,11,08,18,40,0.00
2010,11,08,18,41,0.00
2010,11,08,18,42,0.00
2010,11,08,18,43,0.00
2010,11,08,18,44,0.00
2010,11,08,18,45,0.00
2010,11,08,18,46,0.10
2010,11,08,18,47,0.00
2010,11,08,18,48,0.00